East Taunton, MA

10:41 PM EST on February 24, 2017 (GMT -0500)
Taunton Municipal

Weather History for KTAN - December, 2012

Change the Weather History Date:

Saturday, December 29, 2012

  Actual Average Record
Temperature  
Mean Temperature 28 °F -  
Max Temperature 35 °F 39 °F 69 °F (1984)
Min Temperature 21 °F 20 °F 4 °F (1993)
Degree Days  
Heating Degree Days 37    
Moisture  
Dew Point 28 °F    
Average Humidity 86    
Maximum Humidity 92    
Minimum Humidity 70    
Precipitation  
Precipitation 0.74 in - - ()
Sea Level Pressure  
Sea Level Pressure 29.63 in    
Wind  
Wind Speed 3 mph (North)    
Max Wind Speed 14 mph    
Max Gust Speed 22 mph    
Visibility 4 miles    
Events Rain , Snow    
Averages and records for this station are not official NWS values.
T = Trace of Precipitation, MM = Missing Value Source: NWS Daily Summary

Daily Weather History Graph

Daily Weather History Graph

Search for Another Location

Airport or City:

Trip Planner

Search our weather history database for the weather conditions in past years. The results will help you decide how hot, cold, wet, or windy it might be!

Date:

Astronomy

Dec. 29, 2012 Rise Set
Actual Time 7:11 AM EST 4:21 PM EST
Civil Twilight 6:39 AM EST 4:53 PM EST
Nautical Twilight 6:04 AM EST 5:28 PM EST
Astronomical Twilight 5:30 AM EST 6:02 PM EST
Moon 5:53 PM EST (12/29) 7:41 AM EST (12/29)
Length of Visible Light 10h 13m
Length of Day
9h 10m
Full, 98% of the Moon is Illuminated
Dec 29
Full
Jan 4
Last Quarter
Jan 11
New
Jan 18
First Quarter
Jan 26
Full

Hourly Weather History & Observations

Time (EST) Temp. Windchill Dew Point Humidity Pressure Visibility Wind Dir Wind Speed Gust Speed Precip Events Conditions
12:52 AM 27.0 °F 23.0 °F 21.0 °F 78% 30.00 in 10.0 mi SW 3.5 mph - N/A   Clear
2:52 AM 23.0 °F - 19.9 °F 88% 30.01 in 10.0 mi Calm Calm - N/A   Clear
3:52 AM 21.9 °F - 19.0 °F 89% 29.99 in 10.0 mi Calm Calm - N/A   Clear
4:52 AM 25.0 °F - 21.0 °F 85% 29.99 in 10.0 mi Calm Calm - N/A   Clear
5:52 AM 27.0 °F - 23.0 °F 85% 29.99 in 10.0 mi Calm Calm - N/A   Clear
6:52 AM 28.0 °F - 24.1 °F 85% 29.99 in 10.0 mi Calm Calm - N/A   Clear
7:52 AM 28.9 °F - 24.1 °F 82% 29.97 in 10.0 mi Calm Calm - N/A   Overcast
8:52 AM 30.0 °F - 25.0 °F 82% 29.96 in 10.0 mi Calm Calm - N/A   Overcast
9:52 AM 30.9 °F - 25.0 °F 79% 29.93 in 10.0 mi Calm Calm - N/A   Overcast
10:52 AM 33.1 °F - 24.1 °F 70% 29.90 in 10.0 mi Calm Calm - N/A   Overcast
11:52 AM 34.0 °F - 25.0 °F 70% 29.86 in 10.0 mi Calm Calm - N/A   Overcast
12:52 PM 34.0 °F 28.0 °F 25.0 °F 70% 29.78 in 10.0 mi NNE 6.9 mph - N/A   Overcast
1:52 PM 34.0 °F 28.8 °F 26.1 °F 73% 29.72 in 10.0 mi Variable 5.8 mph - N/A   Overcast
2:52 PM 35.1 °F 32.2 °F 28.0 °F 76% 29.70 in 10.0 mi NE 3.5 mph - 0.00 in   Overcast
3:05 PM 35.1 °F - 28.0 °F 76% 29.69 in 1.8 mi Calm Calm - 0.00 in Snow Light Snow
3:09 PM 35.1 °F 32.2 °F 28.9 °F 78% 29.69 in 1.0 mi NNE 3.5 mph - 0.00 in Snow Light Snow
3:28 PM 34.0 °F 31.0 °F 30.0 °F 85% 29.69 in 1.8 mi North 3.5 mph - 0.01 in Snow Light Snow
3:34 PM 34.0 °F 31.0 °F 30.0 °F 85% 29.69 in 2.0 mi North 3.5 mph - 0.01 in Snow Light Snow
3:42 PM 34.0 °F 29.8 °F 30.0 °F 85% 29.68 in 1.5 mi NNE 4.6 mph - 0.01 in Snow Light Snow
3:50 PM 33.8 °F 30.8 °F 30.2 °F 87% 29.66 in 1.0 mi Variable 3.5 mph - 0.02 in Snow Light Snow
3:52 PM 33.1 °F 30.0 °F 30.0 °F 89% 29.65 in 1.0 mi NNE 3.5 mph - 0.02 in Snow Light Snow
3:59 PM 33.1 °F 27.7 °F 30.0 °F 89% 29.64 in 0.8 mi NNE 5.8 mph - 0.00 in Snow Light Snow
4:10 PM 33.1 °F 30.0 °F 30.0 °F 89% 29.63 in 0.8 mi NNE 3.5 mph - 0.02 in Snow Light Snow
4:15 PM 33.1 °F 28.7 °F 30.9 °F 92% 29.63 in 1.0 mi NNE 4.6 mph - 0.02 in Snow Light Snow
4:22 PM 33.1 °F 27.7 °F 30.0 °F 89% 29.62 in 1.0 mi North 5.8 mph - 0.03 in Snow Light Snow
4:42 PM 33.1 °F 28.7 °F 30.9 °F 92% 29.60 in 1.8 mi Variable 4.6 mph - 0.04 in Snow Light Snow
4:52 PM 33.1 °F 26.9 °F 30.9 °F 92% 29.57 in 1.2 mi NNE 6.9 mph - 0.05 in Snow Light Snow
5:24 PM 33.1 °F 28.7 °F 30.9 °F 92% 29.53 in 1.5 mi NNE 4.6 mph - 0.04 in Snow Light Snow
5:37 PM 33.1 °F 28.7 °F 30.9 °F 92% 29.53 in 2.5 mi Variable 4.6 mph - 0.05 in Snow Light Snow
5:52 PM 33.1 °F 30.0 °F 30.9 °F 92% 29.51 in 3.0 mi North 3.5 mph - 0.07 in Snow Light Snow
5:59 PM 34.0 °F 29.8 °F 30.9 °F 89% 29.49 in 4.0 mi North 4.6 mph - 0.01 in Snow Light Snow
6:52 PM 34.0 °F 31.0 °F 32.0 °F 92% 29.46 in 5.0 mi NNE 3.5 mph - 0.08 in Rain Light Rain
8:45 PM 34.0 °F 28.8 °F 30.9 °F 89% 29.33 in 2.0 mi North 5.8 mph - 0.13 in Snow Light Snow
8:52 PM 34.0 °F 29.8 °F 30.9 °F 89% 29.33 in 1.5 mi Variable 4.6 mph - 0.15 in Snow Light Snow
9:04 PM 33.1 °F 26.9 °F 30.9 °F 92% 29.34 in 1.2 mi NNW 6.9 mph - 0.04 in Snow Light Snow
9:11 PM 33.1 °F 27.7 °F 30.9 °F 92% 29.34 in 1.2 mi NNW 5.8 mph - 0.05 in Snow Light Snow
9:31 PM 33.1 °F 27.7 °F 30.9 °F 92% 29.34 in 0.8 mi NNW 5.8 mph - 0.11 in Snow Light Snow
9:52 PM 33.1 °F 26.9 °F 30.9 °F 92% 29.34 in 0.8 mi North 6.9 mph - 0.18 in Snow Light Snow
10:30 PM 33.1 °F 25.5 °F 30.9 °F 92% 29.34 in 0.8 mi NW 9.2 mph - 0.08 in Snow Light Snow
10:38 PM 33.1 °F 24.9 °F 30.9 °F 92% 29.35 in 1.0 mi NNW 10.4 mph - 0.10 in Snow Light Snow
10:50 PM 33.8 °F 26.4 °F 30.2 °F 87% 29.34 in 1.5 mi NNW 9.2 mph - 0.12 in Snow Light Snow
10:52 PM 33.1 °F 24.9 °F 30.9 °F 92% 29.34 in 1.5 mi NNW 10.4 mph - 0.12 in Snow Light Snow
11:08 PM 33.1 °F 24.9 °F 30.9 °F 92% 29.35 in 1.2 mi NNW 10.4 mph 17.3 mph 0.02 in Snow Light Snow
11:44 PM 33.1 °F 23.9 °F 30.0 °F 89% 29.37 in 1.0 mi NW 12.7 mph 18.4 mph 0.07 in Snow Light Snow
11:52 PM 32.0 °F 22.1 °F 30.0 °F 92% 29.37 in 0.8 mi NNW 13.8 mph 21.9 mph 0.07 in Snow Light Snow